Home   Weather   Stockport   Past weeks

Flag for United Kingdom Past Weather in Stockport, England, United Kingdom — Yesterday and Last 2 Weeks

45 °F

Passing clouds.

Feels Like: 40 °F
Forecast: 43 / 51 °F
Wind: 9 mph from Northeast

Location: Manchester Airport

Current Time: Oct 22, 2016 at 8:14:24 AM

Latest Report: Oct 22, 2016 at 7:50 AM

Visibility: N/A

Pressure: 30.09 "Hg

Humidity: 93%

Dew Point: 43 °F

Location of StockportLocation

Past Weather in Stockport — Graph


Stockport Temperature Yesterday

Maximum temperature yesterday: 54 °F (at 1:50 PM)
Minimum temperature yesterday: 39 °F (at 4:20 AM)
Average temperature yesterday: 46 °F

High & Low Weather Summary for the Past Weeks

High61 °F (Oct 8, 2:20 PM)100% (Oct 11, 2:50 AM)30.45 "Hg (Oct 11, 2:50 AM)
Low37 °F (Oct 22, 2:50 AM)55% (Oct 8, 2:20 PM)29.62 "Hg (Oct 15, 6:20 AM)
Average51 °F83%30.10 "Hg
* Reported Oct 7 6:20 AM — Oct 22 6:50 AM, Stockport, Weather by CustomWeather, © 2016

Note: Actual official high and low records may vary slightly from our data, if they occured in-between our weather recording intervals... More about our weather records


Stockport Weather History for the Previous 24 Hours

Scroll right to see more
Time TempWeatherWind HumidityBarometerVisibility
6:50 AM
Sat, Oct 22
39 °FClear.No wind100%30.09 "Hg10 mi
6:20 AM39 °FClear.No wind100%30.09 "HgN/A
5:50 AM39 °FClear.3 mph93%30.09 "Hg4 mi
5:20 AM37 °FClear.2 mph100%30.09 "Hg10 mi
4:50 AM37 °FClear.3 mph100%30.09 "Hg10 mi
4:20 AM37 °FClear.7 mph100%30.09 "Hg10 mi
3:50 AM41 °FClear.6 mph93%30.09 "Hg10 mi
3:20 AM37 °FClear.5 mph93%30.09 "Hg10 mi
2:50 AM37 °FClear.3 mph93%30.12 "Hg10 mi
2:20 AM39 °FClear.3 mph93%30.12 "Hg10 mi
1:50 AM39 °FClear.6 mph100%30.12 "Hg10 mi
12:50 AM39 °FClear.5 mph93%30.12 "Hg10 mi
12:20 AM39 °FClear.6 mph100%30.12 "Hg10 mi
11:50 PM
Fri, Oct 21
41 °FClear.5 mph87%30.12 "Hg10 mi
11:20 PM43 °FClear.3 mph87%30.12 "Hg10 mi
10:50 PM43 °FClear.6 mph87%30.12 "Hg10 mi
10:20 PM43 °FClear.5 mph87%30.12 "Hg10 mi
9:50 PM45 °FPassing clouds.5 mph87%30.15 "HgN/A
9:20 PM46 °FPartly cloudy.5 mph87%30.15 "HgN/A
8:50 PM46 °FPassing clouds.5 mph87%30.15 "HgN/A
8:20 PM45 °FClear.5 mph93%30.15 "Hg10 mi
7:50 PM46 °FPassing clouds.3 mph93%30.15 "HgN/A
7:20 PM48 °FClear.6 mph87%30.15 "Hg10 mi
6:50 PM50 °FClear.5 mph82%30.15 "Hg10 mi
6:20 PM52 °FClear.3 mph77%30.12 "Hg10 mi
5:50 PM52 °FSunny.3 mph77%30.12 "Hg10 mi
5:20 PM54 °FPassing clouds.2 mph72%30.12 "HgN/A
4:50 PM54 °FScattered clouds.3 mph72%30.12 "HgN/A
4:20 PM54 °FPassing clouds.5 mph72%30.12 "HgN/A
3:50 PM54 °FPassing clouds.5 mph72%30.12 "HgN/A
3:20 PM54 °FSunny.5 mph72%30.15 "Hg10 mi
2:50 PM54 °FPassing clouds.3 mph77%30.15 "HgN/A
2:20 PM54 °FPassing clouds.5 mph77%30.15 "HgN/A
1:50 PM54 °FPassing clouds.2 mph77%30.15 "HgN/A
1:20 PM52 °FPassing clouds.2 mph82%30.15 "HgN/A
12:50 PM50 °FPassing clouds.3 mph88%30.18 "HgN/A
12:20 PM50 °FPassing clouds.3 mph88%30.18 "HgN/A
11:50 AM50 °FSunny.2 mph88%30.18 "Hg10 mi
11:20 AM48 °FClear.No wind94%30.18 "Hg5 mi
10:50 AM46 °FClear.No wind93%30.18 "Hg4 mi
10:20 AM45 °FClear.No wind93%30.18 "Hg4 mi
9:50 AM43 °FClear.2 mph93%30.18 "Hg6 mi
9:20 AM41 °FSunny.2 mph100%30.18 "Hg10 mi
8:50 AM41 °FSunny.3 mph93%30.18 "Hg10 mi
8:20 AM41 °FSunny.2 mph93%30.18 "Hg10 mi
Weather by CustomWeather, © 2016

See weather overviewHow to use our weather pages